Weather History for KC75 - November, 2013

Change the Weather History Date:

Thursday, November 21, 2013

  Actual Average (KPIA) Record (KPIA)
Temperature  
Mean Temperature 45 °F 39 °F  
Max Temperature 49 °F 47 °F 74 °F (1913)
Min Temperature 41 °F 31 °F 4 °F (1937)
Degree Days  
Heating Degree Days 20 26  
Month to date heating degree days 443  
Since 1 July heating degree days 889  
Cooling Degree Days 0 0  
Month to date cooling degree days 0  
Year to date cooling degree days 1039  
Moisture  
Dew Point 42 °F    
Average Humidity 91    
Maximum Humidity 100    
Minimum Humidity 80    
Precipitation  
Precipitation 0.09 in 0.10 in 1.02 in (2007)
Month to date precipitation 2.20  
Year to date precipitation 33.14  
Snow  
Snow 0.00 in 0.00 in 0.40 in (1957)
Month to date snowfall 0.4  
Since 1 July snowfall 0.4  
Since 1 September snowfall 0.4  
Snow Depth -    
Sea Level Pressure  
Sea Level Pressure 30.14 in    
Wind  
Wind Speed 3 mph (East)    
Max Wind Speed 8 mph    
Max Gust Speed -    
Visibility 7 miles    
Events Rain    
T = Trace of Precipitation, MM = Missing Value Source: NWS Daily Summary

Daily Weather History Graph

Daily Weather History Graph

Search for Another Location

Airport or City:

Trip Planner

Search our weather history database for the weather conditions in past years. The results will help you decide how hot, cold, wet, or windy it might be!

Date:

Astronomy

Nov. 21, 2013 Rise Set
Actual Time 6:52 AM CST 4:34 PM CST
Civil Twilight 6:22 AM CST 5:04 PM CST
Nautical Twilight 5:48 AM CST 5:37 PM CST
Astronomical Twilight 5:16 AM CST 6:10 PM CST
Moon 8:11 PM CST (11/21) 9:58 AM CST (11/21)
Length of Visible Light 10h 41m
Length of Day
9h 41m
Waning Gibbous, 85% of the Moon is Illuminated
Nov 21
Waning Gibbous
Nov 25
Last Quarter
Dec 2
New
Dec 9
First Quarter
Dec 17
Full

Hourly Weather History & Observations

Time (CST) Temp. Windchill Dew Point Humidity Pressure Visibility Wind Dir Wind Speed Gust Speed Precip Events Conditions
12:15 AM 41.0 °F 39.0 °F 37.9 °F 89% 30.09 in 10.0 mi SSE 3.5 mph - N/A   Overcast
12:35 AM 41.0 °F 38.0 °F 38.3 °F 90% 30.09 in 7.0 mi SSE 4.6 mph - N/A   Overcast
12:55 AM 41.0 °F 38.0 °F 38.3 °F 90% 30.09 in 7.0 mi SE 4.6 mph - N/A   Overcast
1:15 AM 41.5 °F 38.6 °F 38.3 °F 88% 30.09 in 10.0 mi SE 4.6 mph - N/A   Overcast
1:35 AM 41.5 °F - 38.3 °F 88% 30.09 in 10.0 mi Calm Calm - N/A   Overcast
1:55 AM 41.5 °F 39.6 °F 38.5 °F 89% 30.09 in 10.0 mi ESE 3.5 mph - N/A   Overcast
2:15 AM 41.5 °F 39.6 °F 38.7 °F 89% 30.09 in 7.0 mi ESE 3.5 mph - N/A   Overcast
2:35 AM 42.1 °F 38.4 °F 38.3 °F 86% 30.08 in 10.0 mi SE 5.8 mph - N/A   Overcast
2:55 AM 42.4 °F 38.8 °F 38.3 °F 85% 30.08 in 10.0 mi SE 5.8 mph - N/A   Overcast
3:15 AM 42.3 °F 40.5 °F 38.8 °F 88% 30.08 in 10.0 mi SE 3.5 mph - N/A   Overcast
3:35 AM 42.3 °F 39.4 °F 39.2 °F 89% 30.08 in 10.0 mi SSE 4.6 mph - N/A   Overcast
4:15 AM 42.8 °F 40.1 °F 39.2 °F 87% 30.08 in 10.0 mi SE 4.6 mph - N/A   Overcast
4:55 AM 43.2 °F 40.5 °F 39.2 °F 86% 30.08 in 10.0 mi SSE 4.6 mph - N/A   Overcast
5:15 AM 42.8 °F 39.3 °F 39.6 °F 88% 30.09 in 10.0 mi SSE 5.8 mph - N/A   Overcast
5:35 AM 43.2 °F 40.5 °F 39.4 °F 86% 30.09 in 10.0 mi SSE 4.6 mph - N/A   Overcast
5:55 AM 43.7 °F 40.3 °F 39.4 °F 85% 30.08 in 10.0 mi SSE 5.8 mph - N/A   Overcast
6:15 AM 43.3 °F 41.7 °F 39.7 °F 87% 30.09 in 10.0 mi SSE 3.5 mph - N/A   Overcast
6:35 AM 43.2 °F 41.5 °F 40.1 °F 89% 30.11 in 10.0 mi SSE 3.5 mph - N/A   Overcast
6:55 AM 43.5 °F - 40.1 °F 88% 30.11 in 10.0 mi Calm Calm - N/A   Overcast
7:15 AM 43.7 °F - 40.1 °F 87% 30.12 in 10.0 mi Calm Calm - N/A   Overcast
7:35 AM 43.5 °F 41.9 °F 40.6 °F 90% 30.12 in 10.0 mi SE 3.5 mph - N/A   Overcast
7:55 AM 44.1 °F 42.5 °F 40.6 °F 88% 30.13 in 10.0 mi SE 3.5 mph - N/A   Overcast
8:15 AM 44.6 °F - 40.6 °F 86% 30.13 in 10.0 mi Calm Calm - N/A   Overcast
8:35 AM 45.5 °F - 41.2 °F 85% 30.13 in 10.0 mi Calm Calm - N/A   Overcast
8:55 AM 45.7 °F 44.4 °F 41.7 °F 86% 30.13 in 10.0 mi SSE 3.5 mph - N/A   Overcast
9:15 AM 46.4 °F - 41.9 °F 84% 30.14 in 10.0 mi Calm Calm - N/A   Overcast
9:35 AM 46.6 °F - 41.9 °F 84% 30.15 in 10.0 mi Calm Calm - N/A   Overcast
9:55 AM 47.1 °F - 42.3 °F 83% 30.15 in 10.0 mi Calm Calm - N/A   Overcast
10:35 AM 47.8 °F - 42.4 °F 82% 30.14 in 10.0 mi Calm Calm - N/A   Overcast
10:55 AM 48.6 °F - 43.3 °F 82% 30.13 in 10.0 mi Calm Calm - N/A   Overcast
11:15 AM 49.1 °F - 43.3 °F 81% 30.13 in 10.0 mi Calm Calm - N/A   Overcast
11:35 AM 49.1 °F - 43.2 °F 80% 30.13 in 10.0 mi Calm Calm - N/A   Overcast
11:55 AM 48.2 °F - 44.2 °F 86% 30.13 in 7.0 mi Calm Calm - N/A Rain Light Rain
12:15 PM 47.8 °F - 44.6 °F 89% 30.13 in 10.0 mi Calm Calm - N/A Rain Rain
12:35 PM 47.7 °F - 45.5 °F 92% 30.14 in 7.0 mi Calm Calm - 0.01 in Rain Light Rain
12:55 PM 47.3 °F - 45.5 °F 93% 30.13 in 5.0 mi Calm Calm - 0.02 in Rain Light Rain
1:15 PM 47.1 °F - 45.5 °F 94% 30.13 in 5.0 mi Calm Calm - 0.01 in Rain Light Rain
1:35 PM 46.8 °F - 45.3 °F 95% 30.12 in 5.0 mi Calm Calm - 0.02 in Rain Light Rain
1:55 PM 46.9 °F - 45.7 °F 95% 30.11 in 5.0 mi Calm Calm - 0.02 in Rain Rain
2:15 PM 46.9 °F - 45.7 °F 95% 30.11 in 5.0 mi Calm Calm - N/A Rain Light Rain
2:35 PM 46.9 °F - 45.9 °F 96% 30.12 in 5.0 mi Calm Calm - N/A Rain Light Rain
2:55 PM 46.8 °F - 45.9 °F 97% 30.13 in 4.0 mi Calm Calm - 0.01 in Rain Light Rain
3:15 PM 46.4 °F - 45.7 °F 97% 30.12 in 2.5 mi Calm Calm - 0.02 in Rain Light Rain
3:35 PM 46.4 °F - 45.9 °F 98% 30.11 in 3.0 mi Calm Calm - 0.03 in Rain Light Rain
4:15 PM 46.4 °F - 45.7 °F 97% 30.13 in 3.0 mi Calm Calm - N/A Rain Rain
4:35 PM 46.0 °F - 45.5 °F 98% 30.14 in 3.0 mi Calm Calm - 0.01 in Rain Rain
4:55 PM 45.9 °F - 45.7 °F 99% 30.14 in 1.8 mi Calm Calm - 0.01 in Rain Rain
5:35 PM 45.5 °F - 45.3 °F 99% 30.16 in 2.0 mi Calm Calm - N/A   Overcast
5:55 PM 45.5 °F - 45.5 °F 100% 30.16 in 2.0 mi Calm Calm - N/A   Overcast
6:15 PM 45.1 °F - 45.1 °F 100% 30.17 in 1.8 mi Calm Calm - N/A   Overcast
6:35 PM 45.0 °F 43.5 °F 45.0 °F 100% 30.18 in 1.2 mi NNW 3.5 mph - N/A   Overcast
6:55 PM 45.1 °F 43.7 °F 45.1 °F 100% 30.19 in 1.8 mi NW 3.5 mph - N/A   Overcast
7:15 PM 45.0 °F 43.5 °F 44.8 °F 99% 30.18 in 5.0 mi North 3.5 mph - N/A   Overcast
7:35 PM 44.6 °F 42.2 °F 43.2 °F 95% 30.18 in 5.0 mi North 4.6 mph - N/A   Overcast
7:55 PM 44.2 °F 41.0 °F 42.8 °F 95% 30.19 in 5.0 mi NNW 5.8 mph - N/A   Overcast
8:15 PM 44.1 °F 41.5 °F 42.4 °F 94% 30.20 in 5.0 mi NNW 4.6 mph - N/A   Overcast
8:35 PM 43.9 °F 42.3 °F 42.4 °F 95% 30.20 in 5.0 mi North 3.5 mph - N/A   Overcast
8:55 PM 43.7 °F 41.1 °F 42.1 °F 94% 30.20 in 5.0 mi North 4.6 mph - N/A   Overcast
9:15 PM 43.7 °F 40.3 °F 42.1 °F 94% 30.20 in 5.0 mi North 5.8 mph - N/A   Overcast
9:35 PM 43.7 °F 41.1 °F 41.9 °F 93% 30.20 in 4.0 mi North 4.6 mph - N/A   Overcast
9:55 PM 43.3 °F 41.7 °F 41.9 °F 95% 30.20 in 4.0 mi North 3.5 mph - N/A   Overcast
10:15 PM 43.0 °F 39.5 °F 41.5 °F 95% 30.21 in 4.0 mi NNW 5.8 mph - N/A   Overcast
10:35 PM 42.8 °F 40.1 °F 41.0 °F 93% 30.21 in 4.0 mi NNW 4.6 mph - N/A   Overcast
10:55 PM 42.4 °F 37.5 °F 40.5 °F 93% 30.22 in 4.0 mi NNW 8.1 mph - N/A   Overcast
11:15 PM 42.1 °F 37.7 °F 40.3 °F 93% 30.22 in 4.0 mi NNW 6.9 mph - N/A   Overcast
11:55 PM 41.5 °F 38.6 °F 40.1 °F 95% 30.23 in 4.0 mi NNW 4.6 mph - N/A   Overcast